カタログに戻る

SIRIUS 2

GE-1E

運用中通信GEO
NORAD 25049·PAYLOAD·🇸🇪 Sweden

打ち上げ Nov 11, 1997 から Guiana Space Centre

Loading…

TLE

最新Source: Space-Track

元期: Sep 14, 2026, 06:39 UTC

1 25049U 97071A   26257.27759098 -.00000222  00000-0  00000-0 0  9990
2 25049  12.1575  33.1937 0003902 143.6895 213.5275  0.99404030105009

AllMySatでSIRIUS 2をリアルタイム追跡

Download on the App Store